Flag for U.S.A. Weather past 2 weeks in Seattle, Washington, U.S.A.

Now
51 °F

Light rain. Overcast.


Feels Like: 50 °F
Forecast: 47 / 57 °F
Wind: 5 mph from Southeast

Location: Seattle Boeing Field

Current Time: Feb 27, 2015 at 12:22:23 AM

Latest Report: Feb 26, 2015 at 11:53 PM


Visibility: 6 mi

Pressure: 29.81 "Hg

Humidity: 83%

Dew point: 46 °F

Location of SeattleLocation

Historic Weather in Seattle — Graph

°F

Seattle temperature yesterday

Maximum temperature yesterday: 54 °F (at 1:53 PM)
Minimum temperature yesterday: 48 °F (at 2:01 AM)
Average temperature yesterday: 51 °F

Past Weeks' High & Low Weather Summary

 TemperatureHumidityPressure
High77 °F (Feb 12, 11:53 AM)95% (Feb 13, 5:53 AM)30.48 "Hg (Feb 13, 5:53 AM)
Low33 °F (Feb 23, 4:53 AM)31% (Feb 22, 3:53 PM)29.83 "Hg (Feb 26, 10:53 PM)
Average51 °F69%30.29 "Hg
* Reported Feb 11 10:53 PM — Feb 26 10:53 PM, Seattle, Weather by CustomWeather, © 2015

Note: Actual official high and low records may vary slightly from our data, if they occured in-between our weather recording intervals... More about our weather records

Advertising

Seattle weather history for previous 24 hours

 ConditionsComfort  
Time TempWeatherWind HumidityBarometerVisibility
10:53 PM
Thu, Feb 26
51 °FLight rain. Overcast.7 mph86%29.83 "Hg9 mi
9:53 PM51 °FLight rain. Overcast.7 mph86%29.86 "Hg8 mi
8:53 PM52 °FLight rain. Mostly cloudy.6 mph83%29.89 "Hg5 mi
7:53 PM52 °FMostly cloudy.No wind83%29.91 "Hg7 mi
6:53 PM52 °FOvercast.6 mph80%29.93 "Hg10 mi
5:53 PM53 °FMostly cloudy.5 mph74%29.96 "Hg10 mi
4:53 PM54 °FMostly cloudy.No wind72%29.99 "Hg10 mi
3:53 PM54 °FMostly cloudy.No wind72%30.01 "Hg10 mi
2:53 PM54 °FBroken clouds.No wind72%30.03 "Hg10 mi
1:53 PM54 °FCloudy.No wind72%30.06 "Hg10 mi
12:53 PM53 °FMostly cloudy.No wind72%30.09 "Hg10 mi
11:53 AM53 °FMostly cloudy.3 mph74%30.12 "Hg10 mi
10:53 AM52 °FMore clouds than sun.No wind77%30.14 "Hg10 mi
9:53 AM51 °FMostly cloudy.No wind77%30.16 "Hg9 mi
8:53 AM50 °FMostly cloudy.No wind83%30.18 "Hg8 mi
7:53 AM49 °FFog.No wind86%30.17 "Hg6 mi
7:00 AM48 °FMostly cloudy.No wind87%30.18 "Hg10 mi
5:53 AM49 °FPassing clouds.5 mph84%30.19 "Hg6 mi
4:53 AM49 °FLow clouds.3 mph84%30.22 "Hg10 mi
3:53 AM49 °FMostly cloudy.3 mph84%30.23 "Hg10 mi
2:53 AM49 °FFog.No wind86%30.24 "Hg5 mi
2:01 AM48 °FMostly cloudy.No wind87%30.24 "Hg8 mi
12:53 AM49 °FLight rain. Fog.5 mph86%30.25 "Hg5 mi
Weather by CustomWeather, © 2015

See weather overviewHow to use our weather pages